timestamp,wind_dir_avg,wind_spd_avg,wind_spd_max_dir,wind_spd_gust,battery_voltage,lat,long
2022-12-13 00:04:00+00:00,71.0,7.38,75.0,10.31,12.17,47.59359,-54.27349
2022-12-13 00:14:00+00:00,74.0,7.66,77.0,10.03,12.09,47.59359,-54.27349
2022-12-13 00:24:00+00:00,78.0,8.61,72.0,10.71,12.09,47.59359,-54.27349
2022-12-13 00:34:00+00:00,69.0,8.87,71.0,10.27,12.09,47.59359,-54.27349
2022-12-13 00:44:00+00:00,78.0,7.3,70.0,10.65,12.09,47.59359,-54.27349
2022-12-13 00:54:00+00:00,76.0,8.63,73.0,10.57,12.09,47.59359,-54.27349
2022-12-13 01:04:00+00:00,71.0,8.88,77.0,10.26,12.09,47.59359,-54.27349
2022-12-13 01:14:01+00:00,81.0,8.58,76.0,10.4,12.09,47.59359,-54.27349
2022-12-13 01:24:01+00:00,85.0,5.75,79.0,10.26,12.09,47.59359,-54.27349
2022-12-13 01:34:01+00:00,77.0,6.92,71.0,10.46,12.09,47.59359,-54.27349
2022-12-13 01:44:01+00:00,78.0,9.14,75.0,10.71,12.09,47.59359,-54.27349
2022-12-13 01:54:01+00:00,72.0,8.77,75.0,10.45,12.09,47.59359,-54.27349
2022-12-13 02:04:01+00:00,77.0,8.15,77.0,10.31,12.09,47.59359,-54.27349
2022-12-13 02:14:00+00:00,84.0,7.14,95.0,10.12,12.09,47.59359,-54.27349
2022-12-13 02:24:00+00:00,84.0,5.48,70.0,10.4,12.09,47.59359,-54.27349
2022-12-13 02:34:00+00:00,85.0,4.65,85.0,9.55,12.09,47.59359,-54.27349
2022-12-13 02:44:00+00:00,76.0,5.42,84.0,10.17,12.09,47.59359,-54.27349
2022-12-13 02:54:00+00:00,74.0,6.0,77.0,10.33,12.09,47.59359,-54.27349
2022-12-13 03:04:00+00:00,77.0,7.72,75.0,10.51,12.09,47.59359,-54.27349
2022-12-13 03:14:00+00:00,80.0,9.03,72.0,10.57,12.09,47.59359,-54.27349
2022-12-13 03:24:00+00:00,79.0,6.2,79.0,9.76,12.09,47.59359,-54.27349
2022-12-13 03:34:00+00:00,76.0,9.05,75.0,10.7,12.09,47.59359,-54.27349
2022-12-13 03:44:00+00:00,80.0,5.72,74.0,10.51,12.09,47.59359,-54.27349
2022-12-13 03:54:00+00:00,79.0,6.76,74.0,10.36,12.09,47.59359,-54.27349
2022-12-13 04:04:00+00:00,85.0,5.26,100.0,9.68,12.09,47.59359,-54.27349
2022-12-13 04:14:00+00:00,82.0,6.6,81.0,10.21,12.09,47.59359,-54.27349
2022-12-13 04:24:00+00:00,80.0,8.6,73.0,10.89,12.09,47.59359,-54.27349
2022-12-13 04:34:00+00:00,81.0,8.26,71.0,10.88,12.09,47.59359,-54.27349
2022-12-13 04:44:00+00:00,77.0,8.65,78.0,10.35,12.09,47.59359,-54.27349
2022-12-13 04:54:00+00:00,71.0,9.06,69.0,12.02,12.09,47.59359,-54.27349
2022-12-13 05:04:00+00:00,72.0,8.61,67.0,9.75,12.09,47.59359,-54.27349
2022-12-13 05:14:01+00:00,76.0,8.26,79.0,10.24,12.09,47.59359,-54.27349
2022-12-13 05:24:01+00:00,71.0,8.93,71.0,10.83,12.09,47.59359,-54.27349
2022-12-13 05:34:01+00:00,77.0,8.75,71.0,10.63,12.09,47.59359,-54.27349
2022-12-13 05:44:01+00:00,75.0,8.76,65.0,10.62,12.09,47.59359,-54.27349
2022-12-13 05:54:01+00:00,79.0,7.79,75.0,10.45,12.09,47.59359,-54.27349
2022-12-13 06:04:01+00:00,71.0,8.61,71.0,10.33,12.09,47.59359,-54.27349
2022-12-13 06:14:00+00:00,67.0,8.98,68.0,11.19,12.09,47.59359,-54.27349
2022-12-13 06:24:00+00:00,63.0,8.76,70.0,10.54,12.09,47.59359,-54.27349
2022-12-13 06:34:00+00:00,68.0,8.95,68.0,9.96,12.09,47.59359,-54.27349
2022-12-13 06:44:00+00:00,71.0,8.74,74.0,10.63,12.09,47.59359,-54.27349
2022-12-13 06:54:00+00:00,64.0,8.5,68.0,10.92,12.09,47.59359,-54.27349
2022-12-13 07:04:00+00:00,70.0,8.95,71.0,10.58,12.09,47.59359,-54.27349
2022-12-13 07:14:00+00:00,68.0,8.7,68.0,9.59,12.09,47.59359,-54.27349
2022-12-13 07:24:00+00:00,65.0,8.95,68.0,10.01,12.09,47.59359,-54.27349
2022-12-13 07:34:00+00:00,69.0,9.13,75.0,11.35,12.09,47.59359,-54.27349
2022-12-13 07:44:00+00:00,66.0,8.72,61.0,10.19,12.09,47.59359,-54.27349
2022-12-13 07:54:00+00:00,69.0,9.16,68.0,10.01,12.09,47.59359,-54.27349
2022-12-13 08:04:00+00:00,69.0,9.28,71.0,11.57,12.09,47.59359,-54.27349
2022-12-13 08:14:00+00:00,68.0,8.37,67.0,10.98,12.09,47.59359,-54.27349
2022-12-13 08:24:00+00:00,70.0,9.05,77.0,11.13,12.09,47.59359,-54.27349
2022-12-13 08:34:00+00:00,66.0,9.45,73.0,11.96,12.09,47.59359,-54.27349
2022-12-13 08:44:00+00:00,66.0,8.9,60.0,10.47,12.09,47.59359,-54.27349
2022-12-13 08:54:00+00:00,67.0,8.22,58.0,9.4,12.09,47.59359,-54.27349
2022-12-13 09:04:00+00:00,66.0,9.41,63.0,10.29,12.09,47.59359,-54.27349
2022-12-13 09:14:00+00:00,63.0,9.07,61.0,10.29,12.09,47.59359,-54.27349
2022-12-13 09:24:00+00:00,58.0,8.57,60.0,10.2,12.09,47.59359,-54.27349
2022-12-13 09:34:00+00:00,60.0,8.46,59.0,9.62,12.09,47.59359,-54.27349
2022-12-13 09:44:00+00:00,69.0,9.12,77.0,10.75,12.09,47.59359,-54.27349
2022-12-13 09:54:00+00:00,67.0,8.84,62.0,9.91,12.09,47.59359,-54.27349
2022-12-13 10:04:00+00:00,71.0,7.78,68.0,9.72,12.09,47.59359,-54.27349
2022-12-13 10:14:00+00:00,70.0,7.5,71.0,9.29,12.09,47.59359,-54.27349
2022-12-13 10:24:00+00:00,73.0,6.59,67.0,8.68,12.09,47.59359,-54.27349
2022-12-13 10:34:00+00:00,70.0,7.63,53.0,9.22,12.09,47.59359,-54.27349
2022-12-13 10:44:00+00:00,75.0,8.03,76.0,10.94,12.09,47.59359,-54.27349
2022-12-13 10:54:00+00:00,70.0,8.69,63.0,10.24,12.09,47.59359,-54.27349
2022-12-13 11:04:00+00:00,73.0,7.43,62.0,10.64,12.09,47.59359,-54.27349
2022-12-13 11:14:01+00:00,83.0,6.78,87.0,9.31,12.09,47.59359,-54.27349
2022-12-13 11:24:01+00:00,76.0,7.4,70.0,9.76,12.09,47.59359,-54.27349
2022-12-13 11:34:01+00:00,77.0,7.64,75.0,10.17,12.09,47.59359,-54.27349
2022-12-13 11:44:01+00:00,71.0,7.92,60.0,10.68,12.09,47.59359,-54.27349
2022-12-13 11:54:01+00:00,77.0,6.84,54.0,9.73,12.09,47.59359,-54.27349
2022-12-13 12:04:01+00:00,87.0,6.75,101.0,11.27,12.09,47.59359,-54.27349
2022-12-13 12:14:00+00:00,87.0,5.62,73.0,8.4,12.09,47.59359,-54.27349
2022-12-13 12:24:00+00:00,79.0,7.41,88.0,14.43,12.09,47.59359,-54.27349
2022-12-13 12:34:00+00:00,84.0,9.59,88.0,15.42,12.09,47.59359,-54.27349
2022-12-13 12:44:00+00:00,89.0,8.45,92.0,11.66,12.09,47.59359,-54.27349
2022-12-13 12:54:00+00:00,85.0,7.04,100.0,11.27,12.09,47.59359,-54.27349
2022-12-13 13:04:00+00:00,78.0,7.8,74.0,16.16,12.09,47.59359,-54.27349
2022-12-13 13:14:01+00:00,82.0,9.58,73.0,13.5,12.17,47.59359,-54.27349
2022-12-13 13:24:01+00:00,82.0,7.86,78.0,12.72,12.17,47.59359,-54.27349
2022-12-13 13:34:01+00:00,82.0,10.36,88.0,14.27,12.17,47.59359,-54.27349
2022-12-13 13:44:01+00:00,78.0,8.26,83.0,13.41,12.17,47.59359,-54.27349
2022-12-13 13:54:01+00:00,85.0,7.76,81.0,13.72,12.17,47.59359,-54.27349
2022-12-13 14:04:01+00:00,95.0,7.93,109.0,18.57,12.17,47.59359,-54.27349
2022-12-13 14:14:00+00:00,96.0,8.09,103.0,13.78,12.25,47.59359,-54.27349
2022-12-13 14:24:00+00:00,84.0,8.86,94.0,14.69,12.25,47.59359,-54.27349
2022-12-13 14:34:00+00:00,87.0,5.87,68.0,8.43,12.25,47.59359,-54.27349
2022-12-13 14:44:00+00:00,87.0,5.7,62.0,10.96,12.25,47.59359,-54.27349
2022-12-13 14:54:00+00:00,83.0,6.52,72.0,13.39,12.25,47.59359,-54.27349
2022-12-13 15:04:00+00:00,86.0,6.2,90.0,10.23,12.25,47.59359,-54.27349
2022-12-13 15:14:00+00:00,84.0,6.66,84.0,13.36,12.41,47.59359,-54.27349
2022-12-13 15:24:00+00:00,92.0,7.87,79.0,13.74,12.41,47.59359,-54.27349
2022-12-13 15:34:00+00:00,88.0,7.18,67.0,14.05,12.41,47.59359,-54.27349
2022-12-13 15:44:00+00:00,86.0,7.89,77.0,13.69,12.41,47.59359,-54.27349
2022-12-13 15:54:00+00:00,87.0,7.8,103.0,14.39,12.41,47.59359,-54.27349
2022-12-13 16:04:00+00:00,98.0,7.34,111.0,14.35,12.41,47.59359,-54.27349
2022-12-13 16:14:01+00:00,94.0,6.42,96.0,12.62,12.65,47.59359,-54.27349
2022-12-13 16:24:01+00:00,95.0,6.9,84.0,13.45,12.65,47.59359,-54.27349
2022-12-13 16:34:01+00:00,87.0,7.32,117.0,14.37,12.65,47.59359,-54.27349
2022-12-13 16:44:01+00:00,86.0,7.53,113.0,13.96,12.65,47.59359,-54.27349
2022-12-13 16:54:01+00:00,82.0,6.44,104.0,14.29,12.65,47.59359,-54.27349
2022-12-13 17:04:01+00:00,90.0,6.43,101.0,13.67,12.65,47.59359,-54.27349
2022-12-13 17:14:01+00:00,90.0,8.48,121.0,15.06,12.73,47.59359,-54.27349
2022-12-13 17:24:01+00:00,82.0,7.75,88.0,13.03,12.73,47.59359,-54.27349
2022-12-13 17:34:01+00:00,78.0,6.1,92.0,10.61,12.73,47.59359,-54.27349
2022-12-13 17:44:01+00:00,85.0,8.76,71.0,14.34,12.73,47.59359,-54.27349
2022-12-13 17:54:01+00:00,82.0,8.5,77.0,14.14,12.73,47.59359,-54.27349
2022-12-13 18:04:01+00:00,80.0,9.06,66.0,13.82,12.73,47.59359,-54.27349
2022-12-13 18:14:01+00:00,88.0,6.58,92.0,13.07,12.41,47.59359,-54.27349
2022-12-13 18:24:01+00:00,79.0,10.27,73.0,14.61,12.41,47.59359,-54.27349
2022-12-13 18:34:01+00:00,80.0,10.39,84.0,14.67,12.41,47.59359,-54.27349
2022-12-13 18:44:01+00:00,78.0,10.48,80.0,15.5,12.41,47.59359,-54.27349
2022-12-13 18:54:01+00:00,80.0,10.8,73.0,14.56,12.41,47.59359,-54.27349
2022-12-13 19:04:01+00:00,82.0,10.72,108.0,14.39,12.41,47.59359,-54.27349
2022-12-13 19:14:01+00:00,82.0,7.41,80.0,13.75,12.25,47.59359,-54.27349
2022-12-13 19:24:01+00:00,93.0,6.21,78.0,13.19,12.25,47.59359,-54.27349
2022-12-13 19:34:01+00:00,89.0,8.29,83.0,13.73,12.25,47.59359,-54.27349
2022-12-13 19:44:01+00:00,81.0,7.9,94.0,13.82,12.25,47.59359,-54.27349
2022-12-13 19:54:01+00:00,82.0,10.71,87.0,16.73,12.25,47.59359,-54.27349
2022-12-13 20:04:01+00:00,76.0,12.38,82.0,14.87,12.25,47.59359,-54.27349
2022-12-13 20:14:00+00:00,77.0,10.62,77.0,14.59,12.09,47.59359,-54.27349
2022-12-13 20:24:00+00:00,78.0,11.87,80.0,15.47,12.09,47.59359,-54.27349
2022-12-13 20:34:00+00:00,78.0,9.77,63.0,14.25,12.09,47.59359,-54.27349
2022-12-13 20:44:00+00:00,79.0,10.54,84.0,14.53,12.09,47.59359,-54.27349
2022-12-13 20:54:00+00:00,84.0,11.06,81.0,14.65,12.09,47.59359,-54.27349
2022-12-13 21:04:00+00:00,78.0,8.9,73.0,13.21,12.09,47.59359,-54.27349
2022-12-13 21:14:00+00:00,74.0,11.5,67.0,15.96,12.09,47.59359,-54.27349
2022-12-13 21:24:00+00:00,83.0,10.27,90.0,16.03,12.09,47.59359,-54.27349
2022-12-13 21:34:00+00:00,80.0,10.17,89.0,13.52,12.09,47.59359,-54.27349
2022-12-13 21:44:00+00:00,81.0,10.38,93.0,17.08,12.09,47.59359,-54.27349
2022-12-13 21:54:00+00:00,81.0,9.69,93.0,15.06,12.09,47.59359,-54.27349
2022-12-13 22:04:00+00:00,77.0,10.51,66.0,14.77,12.09,47.59359,-54.27349
2022-12-13 22:14:00+00:00,77.0,8.48,62.0,14.65,12.09,47.59359,-54.27349
2022-12-13 22:24:00+00:00,83.0,8.42,70.0,12.8,12.09,47.59359,-54.27349
2022-12-13 22:34:00+00:00,81.0,7.2,86.0,13.61,12.09,47.59359,-54.27349
2022-12-13 22:44:00+00:00,82.0,8.49,84.0,13.51,12.09,47.59359,-54.27349
2022-12-13 22:54:00+00:00,83.0,8.27,102.0,14.1,12.09,47.59359,-54.27349
2022-12-13 23:04:00+00:00,90.0,7.41,71.0,12.28,12.09,47.59359,-54.27349
2022-12-13 23:14:00+00:00,85.0,7.18,107.0,13.15,12.09,47.59359,-54.27349
2022-12-13 23:24:00+00:00,83.0,8.6,79.0,13.96,12.09,47.59359,-54.27349
2022-12-13 23:34:00+00:00,83.0,8.89,83.0,14.09,12.09,47.59359,-54.27349
2022-12-13 23:44:00+00:00,81.0,9.71,81.0,13.27,12.09,47.59359,-54.27349
2022-12-13 23:54:00+00:00,81.0,10.71,76.0,15.46,12.09,47.59359,-54.27349
